Terminal Aerodrome Forecast
Issued by NWS Memphis, TN

Home | Current Version | Previous Version | Text Only | Print | Product List | Glossary On
Versions: 1 2 3 4 5 6 7 8 9 10 11 12 13
000
FTUS44 KMEG 212320
TAFJBR
TAF
KJBR 212320Z 2200/2224 VRB03KT P6SM FEW250
      TEMPO 2209/2212 5SM BR
     FM221600 09005KT P6SM SCT045=

USA.gov is the U.S. government's official web portal to all federal, state and local government web resources and services.